﻿測定場所 (Monitoring sites),日付 (Measurement date),時間 (Measurement time),線量率 最大値 (max) μGy/h,線量率 最小値 (min) μGy/h,線量率 平均値 (average) μGy/h,
江戸川 (Edogawa),2016-05-29,23:01～24:00,0.0603,0.0540,0.0571,
江戸川 (Edogawa),2016-05-29,22:01～23:00,0.0607,0.0538,0.0569,
江戸川 (Edogawa),2016-05-29,21:01～22:00,0.0614,0.0540,0.0572,
江戸川 (Edogawa),2016-05-29,20:01～21:00,0.0605,0.0539,0.0573,
江戸川 (Edogawa),2016-05-29,19:01～20:00,0.0600,0.0540,0.0572,
江戸川 (Edogawa),2016-05-29,18:01～19:00,0.0599,0.0531,0.0569,
江戸川 (Edogawa),2016-05-29,17:01～18:00,0.0595,0.0545,0.0570,
江戸川 (Edogawa),2016-05-29,16:01～17:00,0.0602,0.0526,0.0571,
江戸川 (Edogawa),2016-05-29,15:01～16:00,0.0601,0.0543,0.0568,
江戸川 (Edogawa),2016-05-29,14:01～15:00,0.0614,0.0540,0.0574,
江戸川 (Edogawa),2016-05-29,13:01～14:00,0.0601,0.0531,0.0569,
江戸川 (Edogawa),2016-05-29,12:01～13:00,0.0594,0.0534,0.0568,
江戸川 (Edogawa),2016-05-29,11:01～12:00,0.0602,0.0539,0.0566,
江戸川 (Edogawa),2016-05-29,10:01～11:00,0.0608,0.0538,0.0569,
江戸川 (Edogawa),2016-05-29,09:01～10:00,0.0602,0.0522,0.0572,
江戸川 (Edogawa),2016-05-29,08:01～09:00,0.0624,0.0546,0.0581,
江戸川 (Edogawa),2016-05-29,07:01～08:00,0.0607,0.0540,0.0579,
江戸川 (Edogawa),2016-05-29,06:01～07:00,0.0615,0.0524,0.0568,
江戸川 (Edogawa),2016-05-29,05:01～06:00,0.0596,0.0529,0.0564,
江戸川 (Edogawa),2016-05-29,04:01～05:00,0.0603,0.0538,0.0567,
江戸川 (Edogawa),2016-05-29,03:01～04:00,0.0599,0.0522,0.0564,
江戸川 (Edogawa),2016-05-29,02:01～03:00,0.0603,0.0534,0.0567,
江戸川 (Edogawa),2016-05-29,01:01～02:00,0.0606,0.0530,0.0562,
江戸川 (Edogawa),2016-05-29,00:01～01:00,0.0600,0.0526,0.0565,
江戸川 (Edogawa),2016-05-28,23:01～24:00,0.0602,0.0519,0.0564,
江戸川 (Edogawa),2016-05-28,22:01～23:00,0.0587,0.0527,0.0561,
江戸川 (Edogawa),2016-05-28,21:01～22:00,0.0596,0.0536,0.0565,
江戸川 (Edogawa),2016-05-28,20:01～21:00,0.0602,0.0524,0.0561,
江戸川 (Edogawa),2016-05-28,19:01～20:00,0.0606,0.0529,0.0562,
江戸川 (Edogawa),2016-05-28,18:01～19:00,0.0598,0.0535,0.0567,
江戸川 (Edogawa),2016-05-28,17:01～18:00,0.0603,0.0530,0.0565,
江戸川 (Edogawa),2016-05-28,16:01～17:00,0.0610,0.0540,0.0566,
江戸川 (Edogawa),2016-05-28,15:01～16:00,0.0605,0.0540,0.0567,
江戸川 (Edogawa),2016-05-28,14:01～15:00,0.0601,0.0522,0.0566,
江戸川 (Edogawa),2016-05-28,13:01～14:00,0.0602,0.0532,0.0564,
江戸川 (Edogawa),2016-05-28,12:01～13:00,0.0586,0.0517,0.0555,
江戸川 (Edogawa),2016-05-28,11:01～12:00,0.0605,0.0532,0.0562,
江戸川 (Edogawa),2016-05-28,10:01～11:00,0.0596,0.0532,0.0562,
江戸川 (Edogawa),2016-05-28,09:01～10:00,0.0611,0.0521,0.0563,
江戸川 (Edogawa),2016-05-28,08:01～09:00,0.0591,0.0529,0.0561,
江戸川 (Edogawa),2016-05-28,07:01～08:00,0.0619,0.0522,0.0559,
江戸川 (Edogawa),2016-05-28,06:01～07:00,0.0588,0.0526,0.0562,
江戸川 (Edogawa),2016-05-28,05:01～06:00,0.0600,0.0527,0.0562,
江戸川 (Edogawa),2016-05-28,04:01～05:00,0.0602,0.0519,0.0560,
江戸川 (Edogawa),2016-05-28,03:01～04:00,0.0586,0.0527,0.0557,
江戸川 (Edogawa),2016-05-28,02:01～03:00,0.0584,0.0523,0.0556,
江戸川 (Edogawa),2016-05-28,01:01～02:00,0.0592,0.0522,0.0558,
江戸川 (Edogawa),2016-05-28,00:01～01:00,0.0588,0.0528,0.0558,
江戸川 (Edogawa),2016-05-27,23:01～24:00,0.0598,0.0509,0.0555,
江戸川 (Edogawa),2016-05-27,22:01～23:00,0.0585,0.0528,0.0556,
江戸川 (Edogawa),2016-05-27,21:01～22:00,0.0590,0.0527,0.0561,
江戸川 (Edogawa),2016-05-27,20:01～21:00,0.0594,0.0533,0.0559,
江戸川 (Edogawa),2016-05-27,19:01～20:00,0.0606,0.0524,0.0560,
江戸川 (Edogawa),2016-05-27,18:01～19:00,0.0611,0.0531,0.0562,
江戸川 (Edogawa),2016-05-27,17:01～18:00,0.0601,0.0533,0.0562,
江戸川 (Edogawa),2016-05-27,16:01～17:00,0.0600,0.0535,0.0561,
江戸川 (Edogawa),2016-05-27,15:01～16:00,0.0625,0.0537,0.0583,
江戸川 (Edogawa),2016-05-27,14:01～15:00,0.0611,0.0528,0.0572,
江戸川 (Edogawa),2016-05-27,13:01～14:00,0.0606,0.0546,0.0573,
江戸川 (Edogawa),2016-05-27,12:01～13:00,0.0619,0.0549,0.0582,
江戸川 (Edogawa),2016-05-27,11:01～12:00,0.0630,0.0567,0.0595,
江戸川 (Edogawa),2016-05-27,10:01～11:00,0.0641,0.0565,0.0604,
江戸川 (Edogawa),2016-05-27,09:01～10:00,0.0628,0.0548,0.0585,
江戸川 (Edogawa),2016-05-27,08:01～09:00,0.0601,0.0488,0.0552,
江戸川 (Edogawa),2016-05-27,07:01～08:00,0.0594,0.0501,0.0541,
江戸川 (Edogawa),2016-05-27,06:01～07:00,0.0614,0.0543,0.0576,
江戸川 (Edogawa),2016-05-27,05:01～06:00,0.0608,0.0545,0.0580,
江戸川 (Edogawa),2016-05-27,04:01～05:00,0.0642,0.0560,0.0597,
江戸川 (Edogawa),2016-05-27,03:01～04:00,0.0627,0.0570,0.0600,
江戸川 (Edogawa),2016-05-27,02:01～03:00,0.0623,0.0553,0.0590,
江戸川 (Edogawa),2016-05-27,01:01～02:00,0.0620,0.0553,0.0588,
江戸川 (Edogawa),2016-05-27,00:01～01:00,0.0622,0.0549,0.0587,
江戸川 (Edogawa),2016-05-26,23:01～24:00,0.0628,0.0553,0.0588,
江戸川 (Edogawa),2016-05-26,22:01～23:00,0.0619,0.0546,0.0585,
江戸川 (Edogawa),2016-05-26,21:01～22:00,0.0637,0.0561,0.0588,
江戸川 (Edogawa),2016-05-26,20:01～21:00,0.0612,0.0562,0.0587,
江戸川 (Edogawa),2016-05-26,19:01～20:00,0.0626,0.0552,0.0588,
江戸川 (Edogawa),2016-05-26,18:01～19:00,0.0619,0.0562,0.0585,
江戸川 (Edogawa),2016-05-26,17:01～18:00,0.0617,0.0562,0.0588,
江戸川 (Edogawa),2016-05-26,16:01～17:00,0.0615,0.0560,0.0587,
江戸川 (Edogawa),2016-05-26,15:01～16:00,0.0620,0.0555,0.0589,
江戸川 (Edogawa),2016-05-26,14:01～15:00,0.0632,0.0553,0.0590,
江戸川 (Edogawa),2016-05-26,13:01～14:00,0.0622,0.0531,0.0588,
江戸川 (Edogawa),2016-05-26,12:01～13:00,0.0620,0.0551,0.0586,
江戸川 (Edogawa),2016-05-26,11:01～12:00,0.0614,0.0545,0.0584,
江戸川 (Edogawa),2016-05-26,10:01～11:00,0.0619,0.0559,0.0588,
江戸川 (Edogawa),2016-05-26,09:01～10:00,0.0616,0.0561,0.0585,
江戸川 (Edogawa),2016-05-26,08:01～09:00,0.0611,0.0553,0.0582,
江戸川 (Edogawa),2016-05-26,07:01～08:00,0.0614,0.0560,0.0586,
江戸川 (Edogawa),2016-05-26,06:01～07:00,0.0627,0.0553,0.0586,
江戸川 (Edogawa),2016-05-26,05:01～06:00,0.0618,0.0550,0.0583,
江戸川 (Edogawa),2016-05-26,04:01～05:00,0.0632,0.0549,0.0586,
江戸川 (Edogawa),2016-05-26,03:01～04:00,0.0625,0.0547,0.0586,
江戸川 (Edogawa),2016-05-26,02:01～03:00,0.0627,0.0544,0.0586,
江戸川 (Edogawa),2016-05-26,01:01～02:00,0.0619,0.0540,0.0586,
江戸川 (Edogawa),2016-05-26,00:01～01:00,0.0630,0.0553,0.0594,
江戸川 (Edogawa),2016-05-25,23:01～24:00,0.0623,0.0560,0.0589,
江戸川 (Edogawa),2016-05-25,22:01～23:00,0.0629,0.0562,0.0590,
江戸川 (Edogawa),2016-05-25,21:01～22:00,0.0624,0.0557,0.0590,
江戸川 (Edogawa),2016-05-25,20:01～21:00,0.0620,0.0556,0.0590,
江戸川 (Edogawa),2016-05-25,19:01～20:00,0.0632,0.0557,0.0590,
江戸川 (Edogawa),2016-05-25,18:01～19:00,0.0629,0.0555,0.0591,
江戸川 (Edogawa),2016-05-25,17:01～18:00,0.0631,0.0551,0.0585,
江戸川 (Edogawa),2016-05-25,16:01～17:00,0.0630,0.0548,0.0587,
江戸川 (Edogawa),2016-05-25,15:01～16:00,0.0614,0.0548,0.0589,
江戸川 (Edogawa),2016-05-25,14:01～15:00,0.0624,0.0551,0.0587,
江戸川 (Edogawa),2016-05-25,13:01～14:00,0.0629,0.0556,0.0591,
江戸川 (Edogawa),2016-05-25,12:01～13:00,0.0629,0.0561,0.0591,
江戸川 (Edogawa),2016-05-25,11:01～12:00,0.0625,0.0556,0.0592,
江戸川 (Edogawa),2016-05-25,10:01～11:00,0.0617,0.0559,0.0585,
江戸川 (Edogawa),2016-05-25,09:01～10:00,0.0617,0.0541,0.0582,
江戸川 (Edogawa),2016-05-25,08:01～09:00,0.0620,0.0567,0.0589,
江戸川 (Edogawa),2016-05-25,07:01～08:00,0.0624,0.0561,0.0590,
江戸川 (Edogawa),2016-05-25,06:01～07:00,0.0613,0.0551,0.0584,
江戸川 (Edogawa),2016-05-25,05:01～06:00,0.0642,0.0544,0.0587,
江戸川 (Edogawa),2016-05-25,04:01～05:00,0.0624,0.0548,0.0586,
江戸川 (Edogawa),2016-05-25,03:01～04:00,0.0625,0.0546,0.0584,
江戸川 (Edogawa),2016-05-25,02:01～03:00,0.0622,0.0562,0.0588,
江戸川 (Edogawa),2016-05-25,01:01～02:00,0.0626,0.0555,0.0590,
江戸川 (Edogawa),2016-05-25,00:01～01:00,0.0627,0.0547,0.0585,
江戸川 (Edogawa),2016-05-24,23:01～24:00,0.0619,0.0550,0.0586,
江戸川 (Edogawa),2016-05-24,22:01～23:00,0.0620,0.0556,0.0586,
江戸川 (Edogawa),2016-05-24,21:01～22:00,0.0611,0.0556,0.0587,
江戸川 (Edogawa),2016-05-24,20:01～21:00,0.0621,0.0558,0.0586,
江戸川 (Edogawa),2016-05-24,19:01～20:00,0.0621,0.0551,0.0585,
江戸川 (Edogawa),2016-05-24,18:01～19:00,0.0621,0.0549,0.0586,
江戸川 (Edogawa),2016-05-24,17:01～18:00,0.0621,0.0552,0.0589,
江戸川 (Edogawa),2016-05-24,16:01～17:00,0.0625,0.0553,0.0588,
江戸川 (Edogawa),2016-05-24,15:01～16:00,0.0634,0.0562,0.0595,
江戸川 (Edogawa),2016-05-24,14:01～15:00,0.0640,0.0559,0.0591,
江戸川 (Edogawa),2016-05-24,13:01～14:00,0.0629,0.0557,0.0591,
江戸川 (Edogawa),2016-05-24,12:01～13:00,0.0629,0.0557,0.0587,
江戸川 (Edogawa),2016-05-24,11:01～12:00,0.0620,0.0539,0.0589,
江戸川 (Edogawa),2016-05-24,10:01～11:00,0.0621,0.0553,0.0591,
江戸川 (Edogawa),2016-05-24,09:01～10:00,0.0627,0.0553,0.0594,
江戸川 (Edogawa),2016-05-24,08:01～09:00,0.0621,0.0561,0.0599,
江戸川 (Edogawa),2016-05-24,07:01～08:00,0.0625,0.0566,0.0595,
江戸川 (Edogawa),2016-05-24,06:01～07:00,0.0622,0.0553,0.0588,
江戸川 (Edogawa),2016-05-24,05:01～06:00,0.0630,0.0561,0.0590,
江戸川 (Edogawa),2016-05-24,04:01～05:00,0.0627,0.0547,0.0587,
江戸川 (Edogawa),2016-05-24,03:01～04:00,0.0626,0.0557,0.0588,
江戸川 (Edogawa),2016-05-24,02:01～03:00,0.0616,0.0538,0.0586,
江戸川 (Edogawa),2016-05-24,01:01～02:00,0.0615,0.0552,0.0587,
江戸川 (Edogawa),2016-05-24,00:01～01:00,0.0620,0.0555,0.0589,
江戸川 (Edogawa),2016-05-23,23:01～24:00,0.0615,0.0554,0.0588,
江戸川 (Edogawa),2016-05-23,22:01～23:00,0.0627,0.0557,0.0591,
江戸川 (Edogawa),2016-05-23,21:01～22:00,0.0625,0.0550,0.0585,
江戸川 (Edogawa),2016-05-23,20:01～21:00,0.0623,0.0558,0.0589,
江戸川 (Edogawa),2016-05-23,19:01～20:00,0.0623,0.0552,0.0587,
江戸川 (Edogawa),2016-05-23,18:01～19:00,0.0615,0.0546,0.0585,
江戸川 (Edogawa),2016-05-23,17:01～18:00,0.0633,0.0546,0.0591,
江戸川 (Edogawa),2016-05-23,16:01～17:00,0.0632,0.0552,0.0594,
江戸川 (Edogawa),2016-05-23,15:01～16:00,0.0632,0.0554,0.0596,
江戸川 (Edogawa),2016-05-23,14:01～15:00,0.0630,0.0561,0.0597,
江戸川 (Edogawa),2016-05-23,13:01～14:00,0.0635,0.0563,0.0596,
江戸川 (Edogawa),2016-05-23,12:01～13:00,0.0632,0.0549,0.0595,
江戸川 (Edogawa),2016-05-23,11:01～12:00,0.0637,0.0555,0.0594,
江戸川 (Edogawa),2016-05-23,10:01～11:00,0.0638,0.0570,0.0599,
江戸川 (Edogawa),2016-05-23,09:01～10:00,0.0620,0.0569,0.0599,
江戸川 (Edogawa),2016-05-23,08:01～09:00,0.0636,0.0570,0.0597,
江戸川 (Edogawa),2016-05-23,07:01～08:00,0.0636,0.0558,0.0595,
江戸川 (Edogawa),2016-05-23,06:01～07:00,0.0614,0.0563,0.0589,
江戸川 (Edogawa),2016-05-23,05:01～06:00,0.0617,0.0553,0.0586,
江戸川 (Edogawa),2016-05-23,04:01～05:00,0.0612,0.0561,0.0585,
江戸川 (Edogawa),2016-05-23,03:01～04:00,0.0612,0.0544,0.0581,
江戸川 (Edogawa),2016-05-23,02:01～03:00,0.0612,0.0547,0.0575,
江戸川 (Edogawa),2016-05-23,01:01～02:00,0.0609,0.0548,0.0578,
江戸川 (Edogawa),2016-05-23,00:01～01:00,0.0618,0.0550,0.0575,
